www.pogodaiklimat.ru

Погода и климат >> Архив погоды >> Россия >> Новгородская область >> Демянск


ПОГОДА в Демянске

  • Прогноз погоды в Демянске
  • Монитор погоды в Демянске

АРХИВ ПОГОДЫ в Демянске

Время (UTC), дата Ветер
(напр.,м/с)
 
Видим.   Явления Облачность Т
(С)
Тd
(С)
f
(%)
Тe
(С)
Тes
(С)
Комфортность P
(гПа)
Po
(гПа)
Тmin
(С)
Tmax
(С)
R
(мм)
R24
(мм)
S
(см)
06 16.08 штиль 0 50 км 3/0
[Ci fib]
+16.1 +12.1 77 +16 +22 1017.1 1009.8 +6.6
09 16.08 З 2 н/о н/о +20.1 +10.5 54 +22 +22 комфорт 1016.7 1009.5
12 16.08 СЗ 1 н/о н/о +20.7 +8.7 46 +23 +23 комфорт 1016.4 1009.2
15 16.08 С 1 н/о н/о +21.6 +8.5 43 +23 +23 комфорт 1016.3 1009.1
18 16.08 штиль 0 50 км 4/0
[Ci fib]
+12.9 +11.6 92 +12 +12 1017.1 1009.7 +23.5
21 16.08 штиль 0 н/о н/о +9.0 +8.4 96 +8 +8 1018.1 1010.6
00 17.08 В 1 н/о н/о +7.1 +6.5 96 +6 +6 1018.7 1011.1
03 17.08 штиль 0 н/о н/о +5.9 +5.5 97 +5 +5 1018.9 1011.3 +5.6
06 17.08 штиль 0 50 км 6/0
[Ci]
+15.1 +11.5 79 +15 +20 1019.0 1011.6 +5.6
09 17.08 С 2 н/о н/о +19.7 +12.3 62 +22 +22 комфорт 1018.0 1010.8
12 17.08 штиль 0 н/о н/о +20.4 +12.4 60 +22 +22 комфорт 1017.2 1010.0
15 17.08 С 1 н/о н/о +19.9 +13.8 68 +23 +23 комфорт 1016.5 1009.3
18 17.08 штиль 0 50 км 10/4 1000 м
[Sc Ac As]
+16.1 +14.8 92 +16 +16 1016.5 1009.2 +23.3
21 17.08 штиль 0 н/о н/о +14.5 +12.4 87 +14 +14 1015.1 1007.8
00 18.08 штиль 0 н/о н/о +11.9 +11.1 95 +11 +11 1014.7 1007.3
03 18.08 штиль 0 н/о н/о +10.6 +10.0 96 +10 +10 1013.7 1006.3 +10.2
06 18.08 С 1 50 км 9/0
[Ac As Ci fib]
+13.7 +11.0 84 +14 +17 1012.5 1005.1 +10.2
09 18.08 В 1 н/о н/о +16.9 +13.3 79 +18 +18 1011.8 1004.5
12 18.08 С 1 н/о н/о +16.0 +14.6 91 +17 +17 1012.3 1005.0
15 18.08 С 1 н/о н/о +15.7 +14.7 94 +16 +16 1012.3 1005.0 6
18 18.08 СЗ 1 50 км 10/10 400 м
[Cb calv]
+15.4 +14.5 94 +16 +16 1012.8 1005.5 +17.2 5
21 18.08 штиль 0 н/о н/о +14.8 +14.2 96 +14 +14 1012.8 1005.5
00 19.08 З 1 н/о н/о +15.0 +14.2 95 +15 +15 1013.7 1006.4
03 19.08 штиль 0 н/о н/о +14.7 +14.0 96 +14 +14 1014.4 1007.1 +14.6 0.6
06 19.08 ЮЗ 1 50 км 9/8 300 м
[Cb calv Ac trans]
+16.3 +14.2 87 +17 +18 1015.2 1007.9 +14.6 0.3
09 19.08 Ю 2 н/о н/о +21.5 +15.2 67 +25 +25 комфорт 1015.1 1007.9
12 19.08 Ю 1 н/о н/о +25.4 +15.4 54 +28 +28 жарко 1014.7 1007.6
15 19.08 Ю 1 н/о н/о +24.0 +16.7 64 +28 +28 душно 1014.8 1007.7
18 19.08 ЮВ 1 50 км 8/3 300 м
[Cb calv Ac trans]
+18.2 +16.5 90 +20 +20 1015.6 1008.4 +26.2
21 19.08 штиль 0 н/о н/о +19.1 +16.5 85 +21 +21 комфорт 1015.9 1008.7
00 20.08 В 1 н/о н/о +17.5 +16.2 92 +19 +19 1016.3 1009.0
03 20.08 ЮЗ 1 н/о н/о +18.9 +17.2 90 +21 +21 комфорт 1018.0 1010.8 +16.7
06 20.08 штиль 0 50 км в посл. час ливневой дождь 10/8 300 м
[Cb calv Ac As]
+18.5 +17.2 92 +19 +20 1019.5 1012.2 +16.7 2
09 20.08 СЗ 2 н/о н/о +18.8 +16.7 88 +21 +21 комфорт 1020.6 1013.3
12 20.08 З 2 н/о н/о +22.6 +15.3 63 +26 +26 жарко 1021.3 1014.1
15 20.08 З 1 н/о н/о +21.6 +14.3 63 +25 +25 комфорт 1022.4 1015.2 2
18 20.08 штиль 0 50 км 6/0
[Ac trans Ci fib]
+16.1 +15.2 94 +16 +16 1023.3 1015.9 +23.6
21 20.08 ЮВ 1 н/о н/о +12.0 +11.4 96 +12 +12 1024.5 1017.0
00 21.08 В 1 н/о н/о +9.8 +9.3 97 +9 +9 1025.4 1017.8
03 21.08 ЮВ 1 н/о н/о +8.5 +8.1 97 +8 +8 1026.5 1018.9 +8.4
06 21.08 В 1 50 км 8/0
[Ci fib]
+17.5 +14.6 83 +19 +23 1026.3 1019.0 +8.4
09 21.08 В 1 н/о н/о +23.8 +13.6 53 +26 +26 жарко 1025.5 1018.3
12 21.08 штиль 0 н/о н/о +20.1 +15.8 76 +22 +22 комфорт 1023.9 1016.6
15 21.08 В 1 н/о н/о +17.5 +15.9 90 +19 +19 1021.2 1013.9
18 21.08 СЗ 2 4000 м гроза, ливневой дождь 10/10 420 м
[Cb calv]
+17.7 +16.5 93 +18 +18 1017.5 1010.2 +23.1 2
21 21.08 ЮЗ 1 н/о н/о +18.9 +18.2 96 +22 +22 комфорт 1014.9 1007.7
00 22.08 З 3 н/о н/о +14.1 +13.4 96 +13 +13 1017.6 1010.2
03 22.08 З 3 н/о н/о +14.6 +13.6 94 +14 +14 1021.0 1013.6 +13.9 15
06 22.08 З 2 50 км 10/10 450 м
[Cb calv]
+14.8 +13.3 91 +14 +14 1023.0 1015.6 +13.9 13
09 22.08 З 2 н/о н/о +17.0 +12.9 77 +17 +17 1025.0 1017.6
12 22.08 З 4 н/о н/о +20.2 +11.7 58 +22 +22 комфорт 1025.6 1018.3
15 22.08 З 2 н/о н/о +19.8 +10.3 54 +22 +22 комфорт 1026.0 1018.7
18 22.08 штиль 0 50 км ясно +12.6 +11.7 94 +12 +12 1027.0 1019.5 +20.6
21 22.08 штиль 0 н/о н/о +10.9 +10.3 96 +10 +10 1027.9 1020.4
00 23.08 З 1 н/о н/о +10.2 +9.7 97 +10 +10 1028.6 1021.0
03 23.08 штиль 0 н/о н/о +9.6 +9.1 97 +9 +9 1029.0 1021.4 +8.7

 

Местоположение метеостанции Демянск (Новгородская область, Россия): широта 57.65 долгота 32.47 высота над уровнем моря 61 м.

В архиве по умолчанию представлена погода в Демянске за последнюю неделю. Архивные данные за месяц целиком и за предыдущие месяцы, начиная с января 2011 года, Вы можете получить, выбрав интересующий диапазон дат из раскрывающегося списка и нажав кнопку "Ввод!".


*Определитесь, кто Вы:
робот инопланетянин человек

Внимание! Время в таблицах - всемирное. Для получения местного времени необходимо прибавить поправку, которая равна 3 ч.

Смотрите также архив погоды в соседних городах и на ближайших метеорологических станциях:

Погода в Валдае (Новгородская область, Россия) (60 км)
Погода в Крестцах (Новгородская область, Россия) (69 км)
Погода в Осташкове (Тверская область, Россия) (71 км)
Погода в Старой Руссе (Новгородская область, Россия) (80 км)
Погода в Окуловке (Новгородская область, Россия) (94 км)
Погода в Холме (Новгородская область, Россия) (95 км)
Погода в Бологом (Тверская область, Россия) (96 км)
Погода в Боровичах (Новгородская область, Россия) (120 км)
Погода в Великом Новгороде (Новгородская область, Россия) (120 км)
Погода в Вышнем Волочке (Тверская область, Россия) (125 км)

Пояснения к столбцам:

Ветер - указаны скорость ветра в м/с - средняя за 10 мин, порывы в срок и между сроками (в фигурных скобках) и направление, откуда дует ветер: С - северный, СВ - северо-восточный, В - восточный, ЮВ - юго-восточный, Ю - южный, ЮЗ - юго-западный, З - западный, СЗ - северо-западный.
Видимость - горизонтальная дальность видимости в метрах или километрах. При видимости от 1 до 10 км при отсутствии осадков обычно наблюдается дымка, при ухудшении видимости до 1 км и менее - туман. В сухую погоду видимость может ухудшаться дымом, пылью или мглою.
Явления - указаны атмосферные явления, наблюдавшиеся в срок или в последний час перед сроком; фигурными скобками обозначены явления, наблюдавшиеся между сроками (за 1-3 часа до срока); квадратными скобками обозначены град или гололедные отложения с указанием их диаметра в мм.
Облачность - указаны через наклонную черту общая и нижняя облачность в баллах и высота нижней границы облаков в метрах; квадратными скобками обозначены формы облаков: Ci - перистые, Cs - перисто-слоистые, Cc - перисто-кучевые, Ac - высококучевые, As - высокослоистые, Sc - слоисто-кучевые, Ns - слоисто-дождевые, Cu - кучевые, Cb - кучево-дождевые. Подробнее классификацию облаков см. в Атласе облаков (PDF).
T - Температура воздуха - температура, измеренная на высоте 2 м над землей.
Td - Температура точки росы - температура, при понижении до которой содержащийся в воздухе водяной пар достигнет насыщения.
f - Относительная влажность воздуха - влажноcть воздуха, измеренная на высоте 2 м над землей.
Te - Эффективная температура - температура, которую ощущает одетый по сезону человек в тени. Характеристика душности погоды. При расчете учитывается влияние влажности воздуха и скорости ветра на теплоощущения человека.
Tes - Эффективная температура на солнце - температура, которую ощущает человек, с поправкой на солнечный нагрев. Характеристика знойности погоды. Зависит от высоты солнца над горизонтом, облачности и скорости ветра. Ночью, в пасмурную погоду, а также при ветре 12 м/с и более поправка равна нулю.
P - Атмосферное давление - приведенное к уровню моря атмосферное давление.
Po - Атмосферное давление - измеренное на уровне метеостанции атмосферное давление.
Tmin - Минимальная температура - минимум температуры воздуха на высоте 2 м над землей.
Tmax - Максимальная температура - максимум температуры воздуха на высоте 2 м над землей.
R - Количество осадков - Количество выпавших осадков за период времени, мм. При наведении курсора мыши на число - период времени, за который выпало указанное количество осадков.
R24 - Количество осадков - Количество выпавших осадков за 24 часа, мм.
S - Снежный покров - Высота снежного покрова, см. При наведении курсора мыши на число - состояние снежного покрова и степень покрытия местности в баллах.